sat.trackr.live / text

‹ back to catalog

STARLINK-3977

NORAD 52640 · 2022-052AU

PAYLOAD ACTIVE UNKNOWN

§ Identity

Operator
Country
US
Launch date
2022-05-14
Launch site
AFETR
Launch vehicle
Mass (kg)
RCS (m²)

Purposes: comms

External: N2YO · Heavens-Above · Gunter

§ Orbital elements

Epoch: 2026-05-25T01:23:50.258112Z

Period
95.44 min
Inclination
53.2140°
Eccentricity
0.0002026
Mean motion
15.08814511 rev/d
Perigee alt
538.4 km
Apogee alt
541.2 km
Semi-major
6,918.0 km
B*
2.8579e-4
RAAN
276.3129°
Arg perigee
88.0323°
Mean anomaly
272.0901°
Rev number
22,265

§ Raw data

STARLINK-39771 52640U 22052AU  26145.05822058  .00004260  00000+0  28579-3 0  99912 52640  53.2140 276.3129 0002026  88.0323 272.0901 15.08814511222650

JSON: /api/v1/satellites/52640 · /tle

For live sub-satellite position, see the globe view (requires WebGL).

§ Visibility from observer

Set your observer location to see the next 7 days of passes ≥ 10°. The values pass through the URL so the page stays shareable.

No JS? Fill the form by hand. The geolocation button needs JavaScript.